Tabellarische Ansicht des 1.7.2021


Die einzelnen Werte des Tages

Uhrzeit Temperatur Luftdruck Luftfeuchte Wind Hi-Wind Taupunkt THW Index Wind Chill Heat Index Solar- strahlung Regen

00:00

15.2 C

1008.2 hpa

87 %

4.8 km/h aus 115

14.5 km/h aus NW

13.0 C

15.2 C

15.2 C

15.2 C

0 W/m

0.00 mm

00:05

15.1 C

1008.2 hpa

87 %

1.6 km/h aus 115

8.0 km/h aus WSW

13.0 C

15.2 C

15.1 C

15.2 C

0 W/m

0.00 mm

00:10

15.1 C

1008.2 hpa

87 %

4.8 km/h aus 117

16.1 km/h aus WNW

12.9 C

15.1 C

15.1 C

15.1 C

0 W/m

0.00 mm

00:15

15.0 C

1008.1 hpa

87 %

3.2 km/h aus 116

8.0 km/h aus WNW

12.9 C

15.1 C

15.0 C

15.1 C

0 W/m

0.00 mm

00:20

14.9 C

1008.1 hpa

87 %

6.4 km/h aus 114

14.5 km/h aus NW

12.8 C

15.0 C

14.9 C

15.0 C

0 W/m

0.00 mm

00:25

14.9 C

1008.1 hpa

87 %

6.4 km/h aus 115

16.1 km/h aus W

12.7 C

14.9 C

14.9 C

14.9 C

0 W/m

0.00 mm

00:30

14.8 C

1008.1 hpa

87 %

3.2 km/h aus 117

16.1 km/h aus WSW

12.7 C

14.9 C

14.8 C

14.9 C

0 W/m

0.00 mm

00:35

14.8 C

1008.1 hpa

87 %

3.2 km/h aus 117

6.4 km/h aus W

12.6 C

14.8 C

14.8 C

14.8 C

0 W/m

0.00 mm

00:40

14.8 C

1008.1 hpa

87 %

8.0 km/h aus 116

20.9 km/h aus WSW

12.6 C

14.6 C

14.6 C

14.8 C

0 W/m

0.00 mm

00:45

14.7 C

1008.0 hpa

87 %

11.3 km/h aus 114

22.5 km/h aus WSW

12.6 C

14.1 C

14.1 C

14.7 C

0 W/m

0.00 mm

00:50

14.7 C

1008.0 hpa

87 %

6.4 km/h aus 117

22.5 km/h aus WSW

12.5 C

14.7 C

14.7 C

14.7 C

0 W/m

0.00 mm

00:55

14.7 C

1008.0 hpa

87 %

3.2 km/h aus 117

11.3 km/h aus W

12.5 C

14.7 C

14.7 C

14.7 C

0 W/m

0.00 mm

01:00

14.6 C

1008.0 hpa

87 %

3.2 km/h aus 117

17.7 km/h aus SW

12.5 C

14.6 C

14.6 C

14.6 C

0 W/m

0.00 mm

01:05

14.6 C

1008.0 hpa

87 %

3.2 km/h aus 115

16.1 km/h aus SW

12.5 C

14.6 C

14.6 C

14.6 C

0 W/m

0.00 mm

01:10

14.6 C

1008.0 hpa

87 %

6.4 km/h aus 114

19.3 km/h aus W

12.4 C

14.6 C

14.6 C

14.6 C

0 W/m

0.00 mm

01:15

14.6 C

1008.0 hpa

87 %

3.2 km/h aus 117

8.0 km/h aus SW

12.4 C

14.6 C

14.6 C

14.6 C

0 W/m

0.00 mm

01:20

14.5 C

1008.0 hpa

87 %

6.4 km/h aus 116

19.3 km/h aus SW

12.4 C

14.5 C

14.5 C

14.5 C

0 W/m

0.00 mm

01:25

14.4 C

1008.0 hpa

88 %

9.7 km/h aus 115

22.5 km/h aus SW

12.5 C

14.0 C

14.0 C

14.4 C

0 W/m

0.00 mm

01:30

14.4 C

1008.0 hpa

88 %

3.2 km/h aus 115

11.3 km/h aus W

12.5 C

14.4 C

14.4 C

14.4 C

0 W/m

0.00 mm

01:35

14.4 C

1008.0 hpa

88 %

4.8 km/h aus 114

14.5 km/h aus SW

12.5 C

14.4 C

14.4 C

14.4 C

0 W/m

0.00 mm

01:40

14.4 C

1008.0 hpa

88 %

6.4 km/h aus 116

17.7 km/h aus NW

12.4 C

14.4 C

14.4 C

14.4 C

0 W/m

0.00 mm

01:45

14.4 C

1008.0 hpa

88 %

6.4 km/h aus 117

20.9 km/h aus WSW

12.4 C

14.4 C

14.4 C

14.4 C

0 W/m

0.00 mm

01:50

14.4 C

1008.0 hpa

88 %

3.2 km/h aus 116

16.1 km/h aus WSW

12.4 C

14.4 C

14.4 C

14.4 C

0 W/m

0.00 mm

01:55

14.4 C

1008.0 hpa

88 %

3.2 km/h aus 116

8.0 km/h aus SSW

12.4 C

14.4 C

14.4 C

14.4 C

0 W/m

0.00 mm

02:00

14.3 C

1008.0 hpa

88 %

4.8 km/h aus 114

20.9 km/h aus WSW

12.4 C

14.3 C

14.3 C

14.3 C

0 W/m

0.00 mm

02:05

14.3 C

1008.0 hpa

88 %

9.7 km/h aus 115

24.1 km/h aus W

12.3 C

13.8 C

13.8 C

14.3 C

0 W/m

0.00 mm

02:10

14.2 C

1008.0 hpa

88 %

4.8 km/h aus 115

16.1 km/h aus W

12.3 C

14.2 C

14.2 C

14.2 C

0 W/m

0.00 mm

02:15

14.2 C

1008.1 hpa

88 %

3.2 km/h aus 117

16.1 km/h aus W

12.3 C

14.2 C

14.2 C

14.2 C

0 W/m

0.00 mm

02:20

14.2 C

1008.1 hpa

88 %

3.2 km/h aus 115

9.7 km/h aus SW

12.3 C

14.2 C

14.2 C

14.2 C

0 W/m

0.00 mm

02:25

14.2 C

1008.1 hpa

88 %

3.2 km/h aus 116

9.7 km/h aus SW

12.2 C

14.2 C

14.2 C

14.2 C

0 W/m

0.00 mm

02:30

14.2 C

1008.2 hpa

88 %

3.2 km/h aus 116

9.7 km/h aus W

12.2 C

14.2 C

14.2 C

14.2 C

0 W/m

0.00 mm

02:35

14.2 C

1008.2 hpa

88 %

4.8 km/h aus 117

19.3 km/h aus W

12.2 C

14.2 C

14.2 C

14.2 C

0 W/m

0.00 mm

02:40

14.2 C

1008.2 hpa

89 %

1.6 km/h aus 115

4.8 km/h aus W

12.4 C

14.2 C

14.2 C

14.2 C

0 W/m

0.00 mm

02:45

14.1 C

1008.1 hpa

88 %

3.2 km/h aus 114

14.5 km/h aus W

12.2 C

14.1 C

14.1 C

14.1 C

0 W/m

0.00 mm

02:50

14.1 C

1008.1 hpa

88 %

6.4 km/h aus 115

16.1 km/h aus SW

12.1 C

14.1 C

14.1 C

14.1 C

0 W/m

0.00 mm

02:55

14.0 C

1008.1 hpa

88 %

4.8 km/h aus 116

19.3 km/h aus WSW

12.0 C

14.0 C

14.0 C

14.0 C

0 W/m

0.00 mm

03:00

14.0 C

1008.0 hpa

88 %

3.2 km/h aus 117

16.1 km/h aus WSW

12.0 C

14.0 C

14.0 C

14.0 C

0 W/m

0.00 mm

03:05

13.9 C

1008.0 hpa

88 %

6.4 km/h aus 116

17.7 km/h aus W

12.0 C

13.9 C

13.9 C

13.9 C

0 W/m

0.00 mm

03:10

13.9 C

1008.0 hpa

88 %

6.4 km/h aus 113

19.3 km/h aus SW

12.0 C

13.9 C

13.9 C

13.9 C

0 W/m

0.00 mm

03:15

13.9 C

1008.0 hpa

88 %

3.2 km/h aus 115

11.3 km/h aus SW

11.9 C

13.9 C

13.9 C

13.9 C

0 W/m

0.00 mm

03:20

13.8 C

1008.0 hpa

88 %

4.8 km/h aus 117

16.1 km/h aus W

11.9 C

13.8 C

13.8 C

13.8 C

0 W/m

0.00 mm

03:25

13.8 C

1008.0 hpa

88 %

3.2 km/h aus 117

16.1 km/h aus SW

11.9 C

13.8 C

13.8 C

13.8 C

0 W/m

0.00 mm

03:30

13.8 C

1008.0 hpa

88 %

4.8 km/h aus 116

22.5 km/h aus WSW

11.8 C

13.8 C

13.8 C

13.8 C

0 W/m

0.00 mm

03:35

13.7 C

1008.0 hpa

88 %

4.8 km/h aus 114

16.1 km/h aus SW

11.8 C

13.7 C

13.7 C

13.7 C

0 W/m

0.00 mm

03:40

13.7 C

1008.0 hpa

89 %

3.2 km/h aus 116

17.7 km/h aus SW

11.9 C

13.8 C

13.7 C

13.8 C

0 W/m

0.00 mm

03:45

13.7 C

1008.0 hpa

89 %

4.8 km/h aus 117

16.1 km/h aus WSW

11.9 C

13.7 C

13.7 C

13.7 C

0 W/m

0.00 mm

03:50

13.7 C

1008.0 hpa

89 %

4.8 km/h aus 116

17.7 km/h aus SW

11.9 C

13.7 C

13.7 C

13.7 C

0 W/m

0.00 mm

03:55

13.7 C

1008.0 hpa

89 %

4.8 km/h aus 117

16.1 km/h aus WSW

11.9 C

13.7 C

13.7 C

13.7 C

0 W/m

0.25 mm

04:00

13.7 C

1008.0 hpa

89 %

1.6 km/h aus 113

6.4 km/h aus WSW

11.9 C

13.7 C

13.7 C

13.7 C

0 W/m

0.00 mm

04:05

13.7 C

1008.0 hpa

89 %

3.2 km/h aus 117

8.0 km/h aus WSW

11.9 C

13.7 C

13.7 C

13.7 C

0 W/m

0.00 mm

04:10

13.6 C

1008.0 hpa

89 %

3.2 km/h aus 117

9.7 km/h aus SSW

11.8 C

13.7 C

13.6 C

13.7 C

0 W/m

0.00 mm

04:15

13.6 C

1008.0 hpa

89 %

3.2 km/h aus 116

8.0 km/h aus SW

11.8 C

13.7 C

13.6 C

13.7 C

0 W/m

0.25 mm

04:20

13.6 C

1008.0 hpa

89 %

1.6 km/h aus 117

8.0 km/h aus SW

11.8 C

13.7 C

13.6 C

13.7 C

0 W/m

0.00 mm

04:25

13.6 C

1008.0 hpa

89 %

4.8 km/h aus 114

11.3 km/h aus SW

11.8 C

13.6 C

13.6 C

13.6 C

0 W/m

0.25 mm

04:30

13.6 C

1008.0 hpa

90 %

4.8 km/h aus 117

14.5 km/h aus SW

11.9 C

13.6 C

13.6 C

13.6 C

0 W/m

0.00 mm

04:35

13.5 C

1008.0 hpa

90 %

1.6 km/h aus 116

9.7 km/h aus SSW

11.9 C

13.6 C

13.5 C

13.6 C

0 W/m

0.00 mm

04:40

13.5 C

1008.0 hpa

90 %

3.2 km/h aus 117

8.0 km/h aus SW

11.9 C

13.6 C

13.5 C

13.6 C

0 W/m

0.00 mm

04:45

13.5 C

1008.0 hpa

90 %

1.6 km/h aus 117

9.7 km/h aus SSW

11.9 C

13.6 C

13.5 C

13.6 C

0 W/m

0.00 mm

04:50

13.4 C

1008.0 hpa

90 %

3.2 km/h aus 114

11.3 km/h aus SSW

11.8 C

13.5 C

13.4 C

13.5 C

0 W/m

0.25 mm

04:55

13.4 C

1008.0 hpa

90 %

3.2 km/h aus 115

8.0 km/h aus WSW

11.8 C

13.5 C

13.4 C

13.5 C

0 W/m

0.00 mm

05:00

13.4 C

1007.9 hpa

90 %

4.8 km/h aus 117

17.7 km/h aus S

11.8 C

13.5 C

13.4 C

13.5 C

0 W/m

0.00 mm

05:05

13.4 C

1007.9 hpa

90 %

4.8 km/h aus 118

16.1 km/h aus SSW

11.8 C

13.5 C

13.4 C

13.5 C

0 W/m

0.00 mm

05:10

13.4 C

1007.9 hpa

90 %

3.2 km/h aus 117

11.3 km/h aus WSW

11.8 C

13.5 C

13.4 C

13.5 C

0 W/m

0.00 mm

05:15

13.4 C

1007.9 hpa

91 %

1.6 km/h aus 113

6.4 km/h aus SSW

12.0 C

13.5 C

13.4 C

13.5 C

0 W/m

0.00 mm

05:20

13.4 C

1007.9 hpa

91 %

3.2 km/h aus 116

9.7 km/h aus SW

12.0 C

13.5 C

13.4 C

13.5 C

0 W/m

0.00 mm

05:25

13.4 C

1007.9 hpa

91 %

4.8 km/h aus 117

9.7 km/h aus SW

11.9 C

13.4 C

13.4 C

13.4 C

0 W/m

0.00 mm

05:30

13.4 C

1007.8 hpa

91 %

6.4 km/h aus 117

17.7 km/h aus SW

11.9 C

13.3 C

13.3 C

13.4 C

0 W/m

0.00 mm

05:35

13.4 C

1007.8 hpa

91 %

4.8 km/h aus 117

19.3 km/h aus SW

11.9 C

13.4 C

13.4 C

13.4 C

0 W/m

0.00 mm

05:40

13.3 C

1007.8 hpa

91 %

4.8 km/h aus 114

9.7 km/h aus S

11.9 C

13.4 C

13.3 C

13.4 C

3 W/m

0.00 mm

05:45

13.4 C

1007.7 hpa

91 %

3.2 km/h aus 115

9.7 km/h aus WSW

11.9 C

13.4 C

13.4 C

13.4 C

5 W/m

0.00 mm

05:50

13.3 C

1007.7 hpa

91 %

4.8 km/h aus 116

20.9 km/h aus SSW

11.9 C

13.4 C

13.3 C

13.4 C

5 W/m

0.00 mm

05:55

13.3 C

1007.7 hpa

91 %

4.8 km/h aus 116

16.1 km/h aus WSW

11.9 C

13.4 C

13.3 C

13.4 C

6 W/m

0.00 mm

06:00

13.3 C

1007.6 hpa

91 %

3.2 km/h aus 116

9.7 km/h aus SW

11.9 C

13.4 C

13.3 C

13.4 C

9 W/m

0.00 mm

06:05

13.3 C

1007.6 hpa

92 %

4.8 km/h aus 113

14.5 km/h aus SSW

12.1 C

13.4 C

13.3 C

13.4 C

11 W/m

0.00 mm

06:10

13.3 C

1007.6 hpa

92 %

4.8 km/h aus 116

17.7 km/h aus SW

12.1 C

13.4 C

13.3 C

13.4 C

12 W/m

0.00 mm

06:15

13.3 C

1007.7 hpa

92 %

6.4 km/h aus 116

19.3 km/h aus S

12.1 C

13.3 C

13.2 C

13.4 C

14 W/m

0.00 mm

06:20

13.3 C

1007.7 hpa

92 %

6.4 km/h aus 116

17.7 km/h aus SW

12.1 C

13.3 C

13.2 C

13.4 C

14 W/m

0.00 mm

06:25

13.4 C

1007.7 hpa

92 %

8.0 km/h aus 117

20.9 km/h aus SW

12.1 C

13.1 C

13.0 C

13.4 C

16 W/m

0.25 mm

06:30

13.4 C

1007.6 hpa

92 %

3.2 km/h aus 115

8.0 km/h aus SW

12.1 C

13.4 C

13.4 C

13.4 C

16 W/m

0.00 mm

06:35

13.4 C

1007.6 hpa

92 %

3.2 km/h aus 115

11.3 km/h aus SW

12.2 C

13.5 C

13.4 C

13.5 C

19 W/m

0.00 mm

06:40

13.4 C

1007.6 hpa

92 %

6.4 km/h aus 117

24.1 km/h aus SSW

12.2 C

13.4 C

13.3 C

13.5 C

21 W/m

0.25 mm

06:45

13.4 C

1007.5 hpa

92 %

6.4 km/h aus 117

19.3 km/h aus SW

12.2 C

13.4 C

13.3 C

13.5 C

30 W/m

0.00 mm

06:50

13.5 C

1007.5 hpa

92 %

4.8 km/h aus 117

16.1 km/h aus WSW

12.2 C

13.6 C

13.5 C

13.6 C

34 W/m

0.00 mm

06:55

13.6 C

1007.5 hpa

92 %

3.2 km/h aus 115

17.7 km/h aus SSW

12.3 C

13.6 C

13.6 C

13.6 C

35 W/m

0.00 mm

07:00

13.6 C

1007.5 hpa

92 %

3.2 km/h aus 115

14.5 km/h aus WSW

12.3 C

13.6 C

13.6 C

13.6 C

43 W/m

0.00 mm

07:05

13.6 C

1007.5 hpa

92 %

4.8 km/h aus 116

19.3 km/h aus SW

12.3 C

13.7 C

13.6 C

13.7 C

47 W/m

0.00 mm

07:10

13.7 C

1007.5 hpa

92 %

8.0 km/h aus 116

22.5 km/h aus SW

12.4 C

13.4 C

13.3 C

13.7 C

50 W/m

0.25 mm

07:15

13.7 C

1007.5 hpa

92 %

4.8 km/h aus 118

20.9 km/h aus WSW

12.4 C

13.7 C

13.7 C

13.7 C

49 W/m

0.00 mm

07:20

13.7 C

1007.5 hpa

92 %

4.8 km/h aus 114

19.3 km/h aus SSW

12.4 C

13.7 C

13.7 C

13.7 C

56 W/m

0.00 mm

07:25

13.7 C

1007.5 hpa

92 %

9.7 km/h aus 116

20.9 km/h aus SSW

12.4 C

13.2 C

13.1 C

13.8 C

55 W/m

0.00 mm

07:30

13.7 C

1007.5 hpa

92 %

6.4 km/h aus 116

17.7 km/h aus SW

12.4 C

13.7 C

13.7 C

13.8 C

42 W/m

0.00 mm

07:35

13.7 C

1007.5 hpa

92 %

9.7 km/h aus 117

25.7 km/h aus SSW

12.4 C

13.2 C

13.1 C

13.8 C

43 W/m

0.00 mm

07:40

13.8 C

1007.5 hpa

92 %

4.8 km/h aus 116

17.7 km/h aus SW

12.5 C

13.8 C

13.8 C

13.8 C

46 W/m

0.00 mm

07:45

13.8 C

1007.5 hpa

92 %

4.8 km/h aus 114

17.7 km/h aus SSW

12.5 C

13.8 C

13.8 C

13.8 C

50 W/m

0.00 mm

07:50

13.8 C

1007.5 hpa

92 %

4.8 km/h aus 116

16.1 km/h aus WSW

12.6 C

13.9 C

13.8 C

13.9 C

51 W/m

0.00 mm

07:55

13.8 C

1007.5 hpa

92 %

6.4 km/h aus 116

17.7 km/h aus S

12.6 C

13.9 C

13.8 C

13.9 C

55 W/m

0.00 mm

08:00

13.8 C

1007.5 hpa

92 %

6.4 km/h aus 117

19.3 km/h aus SW

12.6 C

13.9 C

13.8 C

13.9 C

66 W/m

0.00 mm

08:05

13.9 C

1007.5 hpa

92 %

4.8 km/h aus 116

16.1 km/h aus WSW

12.6 C

13.9 C

13.9 C

13.9 C

81 W/m

0.00 mm

08:10

13.9 C

1007.5 hpa

93 %

9.7 km/h aus 114

24.1 km/h aus SSW

12.8 C

13.4 C

13.3 C

14.0 C

75 W/m

0.00 mm

08:15

13.9 C

1007.5 hpa

93 %

8.0 km/h aus 115

24.1 km/h aus SSW

12.8 C

13.7 C

13.6 C

14.0 C

66 W/m

0.00 mm

08:20

13.8 C

1007.5 hpa

93 %

9.7 km/h aus 117

22.5 km/h aus SW

12.7 C

13.4 C

13.3 C

13.9 C

72 W/m

0.00 mm

08:25

13.9 C

1007.5 hpa

93 %

8.0 km/h aus 116

22.5 km/h aus SSW

12.8 C

13.7 C

13.6 C

14.1 C

86 W/m

0.00 mm

08:30

13.9 C

1007.6 hpa

93 %

8.0 km/h aus 115

17.7 km/h aus SW

12.8 C

13.7 C

13.6 C

14.1 C

84 W/m

0.00 mm

08:35

13.9 C

1007.6 hpa

93 %

8.0 km/h aus 114

24.1 km/h aus S

12.8 C

13.7 C

13.6 C

14.1 C

82 W/m

0.00 mm

08:40

14.0 C

1007.6 hpa

93 %

9.7 km/h aus 116

24.1 km/h aus SSW

12.9 C

13.6 C

13.4 C

14.1 C

84 W/m

0.00 mm

08:45

14.0 C

1007.5 hpa

93 %

6.4 km/h aus 117

24.1 km/h aus SW

12.9 C

14.1 C

14.0 C

14.1 C

88 W/m

0.00 mm

08:50

14.1 C

1007.5 hpa

93 %

4.8 km/h aus 117

22.5 km/h aus SSW

12.9 C

14.2 C

14.1 C

14.2 C

90 W/m

0.00 mm

08:55

14.1 C

1007.5 hpa

92 %

6.4 km/h aus 117

17.7 km/h aus SSW

12.8 C

14.2 C

14.1 C

14.2 C

85 W/m

0.00 mm

09:00

14.1 C

1007.5 hpa

92 %

11.3 km/h aus 113

22.5 km/h aus SSW

12.8 C

13.4 C

13.3 C

14.2 C

73 W/m

0.00 mm

09:05

14.0 C

1007.5 hpa

92 %

9.7 km/h aus 116

22.5 km/h aus WSW

12.7 C

13.5 C

13.4 C

14.1 C

59 W/m

0.00 mm

09:10

14.0 C

1007.5 hpa

92 %

9.7 km/h aus 117

22.5 km/h aus SSW

12.7 C

13.5 C

13.4 C

14.1 C

53 W/m

0.00 mm

09:15

14.0 C

1007.5 hpa

92 %

6.4 km/h aus 116

22.5 km/h aus SW

12.7 C

14.1 C

14.0 C

14.1 C

46 W/m

0.00 mm

09:20

14.1 C

1007.5 hpa

92 %

6.4 km/h aus 115

19.3 km/h aus WSW

12.8 C

14.2 C

14.1 C

14.2 C

49 W/m

0.00 mm

09:25

14.1 C

1007.5 hpa

92 %

9.7 km/h aus 114

27.4 km/h aus SW

12.8 C

13.7 C

13.6 C

14.2 C

66 W/m

0.00 mm

09:30

14.1 C

1007.5 hpa

92 %

8.0 km/h aus 117

19.3 km/h aus SW

12.8 C

13.9 C

13.8 C

14.2 C

81 W/m

0.00 mm

09:35

14.1 C

1007.5 hpa

92 %

8.0 km/h aus 116

20.9 km/h aus W

12.8 C

13.9 C

13.8 C

14.2 C

88 W/m

0.00 mm

09:40

14.2 C

1007.5 hpa

92 %

11.3 km/h aus 117

29.0 km/h aus WSW

12.9 C

13.6 C

13.4 C

14.3 C

94 W/m

0.00 mm

09:45

14.2 C

1007.6 hpa

92 %

8.0 km/h aus 115

20.9 km/h aus SSW

12.9 C

14.1 C

13.9 C

14.3 C

100 W/m

0.00 mm

09:50

14.3 C

1007.6 hpa

92 %

8.0 km/h aus 114

22.5 km/h aus SSW

13.0 C

14.1 C

14.0 C

14.4 C

90 W/m

0.00 mm

09:55

14.3 C

1007.6 hpa

92 %

3.2 km/h aus 117

11.3 km/h aus SW

13.0 C

14.4 C

14.3 C

14.4 C

78 W/m

0.00 mm

10:00

14.3 C

1007.6 hpa

92 %

3.2 km/h aus 116

11.3 km/h aus SW

13.0 C

14.4 C

14.3 C

14.4 C

76 W/m

0.00 mm

10:05

14.3 C

1007.6 hpa

92 %

9.7 km/h aus 117

22.5 km/h aus SW

13.1 C

14.0 C

13.9 C

14.4 C

86 W/m

0.00 mm

10:10

14.3 C

1007.6 hpa

92 %

8.0 km/h aus 116

20.9 km/h aus SW

13.1 C

14.2 C

14.1 C

14.4 C

85 W/m

0.00 mm

10:15

14.3 C

1007.6 hpa

92 %

4.8 km/h aus 114

17.7 km/h aus SW

13.1 C

14.4 C

14.3 C

14.4 C

91 W/m

0.00 mm

10:20

14.4 C

1007.6 hpa

93 %

6.4 km/h aus 117

19.3 km/h aus WSW

13.3 C

14.5 C

14.4 C

14.5 C

98 W/m

0.00 mm

10:25

14.4 C

1007.6 hpa

93 %

3.2 km/h aus 118

9.7 km/h aus WSW

13.3 C

14.5 C

14.4 C

14.5 C

96 W/m

0.00 mm

10:30

14.4 C

1007.6 hpa

92 %

4.8 km/h aus 117

17.7 km/h aus SW

13.2 C

14.6 C

14.4 C

14.6 C

103 W/m

0.25 mm

10:35

14.5 C

1007.6 hpa

93 %

3.2 km/h aus 116

17.7 km/h aus SW

13.4 C

14.6 C

14.5 C

14.6 C

96 W/m

0.00 mm

10:40

14.5 C

1007.6 hpa

93 %

6.4 km/h aus 114

16.1 km/h aus SW

13.4 C

14.6 C

14.5 C

14.6 C

93 W/m

0.00 mm

10:45

14.5 C

1007.6 hpa

93 %

9.7 km/h aus 117

19.3 km/h aus SSW

13.4 C

14.2 C

14.1 C

14.6 C

88 W/m

0.00 mm

10:50

14.5 C

1007.6 hpa

92 %

8.0 km/h aus 117

24.1 km/h aus WSW

13.2 C

14.4 C

14.3 C

14.6 C

86 W/m

0.00 mm

10:55

14.5 C

1007.6 hpa

92 %

4.8 km/h aus 117

19.3 km/h aus SW

13.2 C

14.6 C

14.5 C

14.6 C

78 W/m

0.00 mm

11:00

14.6 C

1007.7 hpa

93 %

3.2 km/h aus 115

11.3 km/h aus SSW

13.4 C

14.7 C

14.6 C

14.7 C

89 W/m

0.00 mm

11:05

14.6 C

1007.7 hpa

93 %

8.0 km/h aus 114

22.5 km/h aus SSW

13.4 C

14.4 C

14.3 C

14.7 C

108 W/m

0.00 mm

11:10

14.6 C

1007.7 hpa

93 %

6.4 km/h aus 117

20.9 km/h aus SW

13.5 C

14.7 C

14.6 C

14.7 C

161 W/m

0.00 mm

11:15

14.7 C

1007.7 hpa

93 %

8.0 km/h aus 117

19.3 km/h aus WSW

13.6 C

14.7 C

14.6 C

14.9 C

170 W/m

0.00 mm

11:20

14.7 C

1007.7 hpa

93 %

8.0 km/h aus 117

19.3 km/h aus SW

13.5 C

14.7 C

14.5 C

14.8 C

141 W/m

0.00 mm

11:25

14.7 C

1007.7 hpa

93 %

9.7 km/h aus 115

25.7 km/h aus SSW

13.6 C

14.5 C

14.3 C

14.9 C

133 W/m

0.25 mm

11:30

14.7 C

1007.8 hpa

93 %

11.3 km/h aus 114

20.9 km/h aus SW

13.5 C

14.2 C

14.1 C

14.8 C

121 W/m

0.00 mm

11:35

14.7 C

1007.8 hpa

93 %

11.3 km/h aus 117

20.9 km/h aus WSW

13.5 C

14.2 C

14.1 C

14.8 C

131 W/m

0.00 mm

11:40

14.7 C

1007.8 hpa

94 %

6.4 km/h aus 116

19.3 km/h aus SSW

13.8 C

14.9 C

14.7 C

14.9 C

156 W/m

0.00 mm

11:45

14.8 C

1007.9 hpa

94 %

6.4 km/h aus 116

22.5 km/h aus SSW

13.8 C

14.9 C

14.8 C

14.9 C

131 W/m

0.00 mm

11:50

14.8 C

1007.9 hpa

94 %

4.8 km/h aus 114

20.9 km/h aus SSW

13.8 C

14.9 C

14.8 C

14.9 C

102 W/m

0.00 mm

11:55

14.8 C

1007.9 hpa

93 %

8.0 km/h aus 116

24.1 km/h aus SSW

13.7 C

14.8 C

14.6 C

14.9 C

94 W/m

0.00 mm

12:00

14.8 C

1008.0 hpa

93 %

6.4 km/h aus 117

17.7 km/h aus SW

13.7 C

14.9 C

14.8 C

14.9 C

92 W/m

0.00 mm

12:05

14.8 C

1008.0 hpa

94 %

6.4 km/h aus 117

17.7 km/h aus WSW

13.8 C

14.9 C

14.8 C

14.9 C

84 W/m

0.00 mm

12:10

14.8 C

1008.0 hpa

94 %

6.4 km/h aus 116

25.7 km/h aus SW

13.8 C

14.9 C

14.8 C

14.9 C

94 W/m

0.00 mm

12:15

14.8 C

1008.1 hpa

94 %

3.2 km/h aus 114

16.1 km/h aus S

13.8 C

14.9 C

14.8 C

14.9 C

98 W/m

0.00 mm

12:20

14.8 C

1008.1 hpa

94 %

6.4 km/h aus 116

19.3 km/h aus SW

13.9 C

15.0 C

14.8 C

15.0 C

105 W/m

0.00 mm

12:25

14.8 C

1008.1 hpa

94 %

6.4 km/h aus 117

19.3 km/h aus WSW

13.9 C

15.0 C

14.8 C

15.0 C

118 W/m

0.25 mm

12:30

14.8 C

1008.1 hpa

94 %

9.7 km/h aus 116

20.9 km/h aus SSW

13.9 C

14.6 C

14.4 C

15.0 C

123 W/m

0.00 mm

12:35

14.9 C

1008.1 hpa

94 %

4.8 km/h aus 117

17.7 km/h aus WSW

13.9 C

15.1 C

14.9 C

15.1 C

136 W/m

0.00 mm

12:40

14.8 C

1008.1 hpa

94 %

8.0 km/h aus 114

19.3 km/h aus SW

13.9 C

14.8 C

14.7 C

15.0 C

131 W/m

0.00 mm

12:45

14.9 C

1008.1 hpa

94 %

3.2 km/h aus 117

8.0 km/h aus SW

13.9 C

15.1 C

14.9 C

15.1 C

106 W/m

0.00 mm

12:50

14.9 C

1008.1 hpa

94 %

3.2 km/h aus 116

14.5 km/h aus WSW

14.0 C

15.2 C

14.9 C

15.2 C

112 W/m

0.25 mm

12:55

14.9 C

1008.1 hpa

94 %

8.0 km/h aus 117

22.5 km/h aus SW

13.9 C

14.9 C

14.8 C

15.1 C

132 W/m

0.25 mm

13:00

14.8 C

1008.1 hpa

94 %

6.4 km/h aus 115

19.3 km/h aus SW

13.9 C

15.0 C

14.8 C

15.0 C

125 W/m

0.00 mm

13:05

14.9 C

1008.1 hpa

94 %

4.8 km/h aus 114

11.3 km/h aus SSW

13.9 C

15.1 C

14.9 C

15.1 C

132 W/m

0.25 mm

13:10

14.9 C

1008.1 hpa

94 %

6.4 km/h aus 117

17.7 km/h aus SW

14.0 C

15.2 C

14.9 C

15.2 C

132 W/m

0.00 mm

13:15

14.9 C

1008.1 hpa

94 %

8.0 km/h aus 116

20.9 km/h aus SW

13.9 C

14.9 C

14.8 C

15.1 C

125 W/m

0.00 mm

13:20

14.8 C

1008.1 hpa

94 %

6.4 km/h aus 116

16.1 km/h aus WSW

13.9 C

15.0 C

14.8 C

15.0 C

121 W/m

0.00 mm

13:25

14.9 C

1008.1 hpa

94 %

6.4 km/h aus 114

16.1 km/h aus SW

14.0 C

15.2 C

14.9 C

15.2 C

118 W/m

0.25 mm

13:30

14.9 C

1008.3 hpa

94 %

6.4 km/h aus 115

17.7 km/h aus SW

14.0 C

15.2 C

14.9 C

15.2 C

117 W/m

0.00 mm

13:35

15.0 C

1008.3 hpa

94 %

4.8 km/h aus 117

16.1 km/h aus WSW

14.0 C

15.2 C

15.0 C

15.2 C

110 W/m

0.00 mm

13:40

15.0 C

1008.3 hpa

94 %

4.8 km/h aus 116

17.7 km/h aus WSW

14.0 C

15.2 C

15.0 C

15.2 C

117 W/m

0.25 mm

13:45

15.0 C

1008.4 hpa

94 %

4.8 km/h aus 116

14.5 km/h aus SSW

14.0 C

15.2 C

15.0 C

15.2 C

113 W/m

0.00 mm

13:50

14.9 C

1008.4 hpa

94 %

6.4 km/h aus 114

20.9 km/h aus WSW

14.0 C

15.2 C

14.9 C

15.2 C

117 W/m

0.00 mm

13:55

15.0 C

1008.4 hpa

94 %

6.4 km/h aus 115

20.9 km/h aus SW

14.0 C

15.2 C

15.0 C

15.2 C

120 W/m

0.25 mm

14:00

15.0 C

1008.5 hpa

94 %

8.0 km/h aus 117

17.7 km/h aus SW

14.0 C

15.1 C

14.9 C

15.2 C

123 W/m

0.25 mm

14:05

15.1 C

1008.5 hpa

94 %

6.4 km/h aus 117

16.1 km/h aus SSW

14.1 C

15.3 C

15.1 C

15.3 C

123 W/m

0.00 mm

14:10

15.1 C

1008.5 hpa

94 %

9.7 km/h aus 117

22.5 km/h aus SSW

14.1 C

14.9 C

14.7 C

15.3 C

97 W/m

0.25 mm

14:15

15.1 C

1008.6 hpa

94 %

6.4 km/h aus 112

19.3 km/h aus SSW

14.1 C

15.3 C

15.1 C

15.3 C

77 W/m

0.25 mm

14:20

15.1 C

1008.6 hpa

94 %

6.4 km/h aus 116

17.7 km/h aus SSW

14.1 C

15.3 C

15.1 C

15.3 C

87 W/m

0.00 mm

14:25

15.1 C

1008.6 hpa

94 %

4.8 km/h aus 116

11.3 km/h aus SW

14.1 C

15.3 C

15.1 C

15.3 C

93 W/m

0.25 mm

14:30

15.1 C

1008.6 hpa

94 %

4.8 km/h aus 116

17.7 km/h aus SSW

14.2 C

15.3 C

15.1 C

15.3 C

104 W/m

0.00 mm

14:35

15.1 C

1008.6 hpa

94 %

9.7 km/h aus 116

19.3 km/h aus SW

14.2 C

15.0 C

14.8 C

15.3 C

113 W/m

0.00 mm

14:40

15.2 C

1008.6 hpa

94 %

4.8 km/h aus 113

16.1 km/h aus SSW

14.2 C

15.4 C

15.2 C

15.4 C

114 W/m

0.00 mm

14:45

15.2 C

1008.6 hpa

95 %

4.8 km/h aus 118

12.9 km/h aus SSW

14.4 C

15.4 C

15.2 C

15.4 C

105 W/m

0.00 mm

14:50

15.3 C

1008.6 hpa

95 %

6.4 km/h aus 117

20.9 km/h aus SW

14.5 C

15.5 C

15.3 C

15.5 C

98 W/m

0.25 mm

14:55

15.3 C

1008.6 hpa

94 %

6.4 km/h aus 117

16.1 km/h aus WSW

14.3 C

15.5 C

15.3 C

15.5 C

112 W/m

0.51 mm

15:00

15.3 C

1008.7 hpa

94 %

4.8 km/h aus 115

17.7 km/h aus SW

14.3 C

15.5 C

15.3 C

15.5 C

85 W/m

0.25 mm

15:05

15.3 C

1008.7 hpa

94 %

4.8 km/h aus 113

17.7 km/h aus SSW

14.3 C

15.5 C

15.3 C

15.5 C

71 W/m

0.00 mm

15:10

15.3 C

1008.7 hpa

94 %

4.8 km/h aus 116

11.3 km/h aus SSW

14.3 C

15.5 C

15.3 C

15.5 C

86 W/m

0.25 mm

15:15

15.3 C

1008.9 hpa

94 %

3.2 km/h aus 117

11.3 km/h aus WSW

14.4 C

15.6 C

15.3 C

15.6 C

81 W/m

0.00 mm

15:20

15.3 C

1008.9 hpa

94 %

4.8 km/h aus 117

9.7 km/h aus SSW

14.4 C

15.6 C

15.3 C

15.6 C

72 W/m

0.25 mm

15:25

15.3 C

1008.9 hpa

94 %

6.4 km/h aus 115

17.7 km/h aus SSW

14.4 C

15.6 C

15.3 C

15.6 C

67 W/m

0.00 mm

15:30

15.3 C

1009.0 hpa

94 %

4.8 km/h aus 115

16.1 km/h aus WSW

14.3 C

15.5 C

15.3 C

15.5 C

68 W/m

0.00 mm

15:35

15.3 C

1009.0 hpa

94 %

3.2 km/h aus 117

11.3 km/h aus SW

14.4 C

15.6 C

15.3 C

15.6 C

74 W/m

0.25 mm

15:40

15.3 C

1009.0 hpa

95 %

4.8 km/h aus 117

11.3 km/h aus SSW

14.5 C

15.6 C

15.3 C

15.6 C

102 W/m

0.25 mm

15:45

15.4 C

1009.1 hpa

95 %

6.4 km/h aus 118

19.3 km/h aus SSW

14.6 C

15.6 C

15.4 C

15.6 C

111 W/m

0.00 mm

15:50

15.4 C

1009.1 hpa

94 %

4.8 km/h aus 115

12.9 km/h aus S

14.5 C

15.7 C

15.4 C

15.7 C

104 W/m

0.00 mm

15:55

15.5 C

1009.1 hpa

94 %

6.4 km/h aus 116

16.1 km/h aus SW

14.5 C

15.7 C

15.5 C

15.7 C

74 W/m

0.00 mm

16:00

15.5 C

1009.1 hpa

94 %

3.2 km/h aus 117

9.7 km/h aus SSW

14.5 C

15.7 C

15.5 C

15.7 C

81 W/m

0.00 mm

16:05

15.6 C

1009.1 hpa

95 %

4.8 km/h aus 116

14.5 km/h aus SW

14.8 C

15.8 C

15.6 C

15.8 C

113 W/m

0.00 mm

16:10

15.7 C

1009.1 hpa

95 %

3.2 km/h aus 117

9.7 km/h aus SSW

14.9 C

15.9 C

15.7 C

15.9 C

131 W/m

0.00 mm

16:15

15.8 C

1009.1 hpa

95 %

6.4 km/h aus 114

16.1 km/h aus SW

15.0 C

16.0 C

15.8 C

16.0 C

135 W/m

0.25 mm

16:20

15.8 C

1009.1 hpa

95 %

6.4 km/h aus 116

12.9 km/h aus SSW

15.0 C

16.1 C

15.8 C

16.1 C

132 W/m

0.00 mm

16:25

15.9 C

1009.1 hpa

95 %

3.2 km/h aus 117

9.7 km/h aus SW

15.1 C

16.2 C

15.9 C

16.2 C

114 W/m

0.00 mm

16:30

15.9 C

1009.1 hpa

95 %

8.0 km/h aus 117

19.3 km/h aus WSW

15.1 C

16.2 C

15.9 C

16.2 C

91 W/m

0.00 mm

16:35

15.9 C

1009.1 hpa

95 %

6.4 km/h aus 115

12.9 km/h aus SW

15.1 C

16.2 C

15.9 C

16.2 C

91 W/m

0.00 mm

16:40

15.9 C

1009.1 hpa

95 %

4.8 km/h aus 113

17.7 km/h aus SSW

15.1 C

16.2 C

15.9 C

16.2 C

92 W/m

0.00 mm

16:45

15.9 C

1009.4 hpa

94 %

3.2 km/h aus 117

9.7 km/h aus SSW

15.0 C

16.2 C

15.9 C

16.2 C

92 W/m

0.00 mm

16:50

15.9 C

1009.4 hpa

94 %

8.0 km/h aus 118

16.1 km/h aus SSW

15.0 C

16.2 C

15.9 C

16.2 C

81 W/m

0.00 mm

16:55

15.9 C

1009.4 hpa

95 %

8.0 km/h aus 116

16.1 km/h aus SSW

15.1 C

16.2 C

15.9 C

16.2 C

63 W/m

0.00 mm

17:00

15.9 C

1009.6 hpa

94 %

8.0 km/h aus 116

16.1 km/h aus SSW

14.9 C

16.1 C

15.9 C

16.1 C

45 W/m

0.00 mm

17:05

15.8 C

1009.6 hpa

94 %

8.0 km/h aus 115

14.5 km/h aus SSW

14.9 C

16.1 C

15.8 C

16.1 C

50 W/m

0.00 mm

17:10

15.8 C

1009.6 hpa

95 %

8.0 km/h aus 115

11.3 km/h aus SSW

15.0 C

16.1 C

15.8 C

16.1 C

45 W/m

0.00 mm

17:15

15.8 C

1009.6 hpa

95 %

4.8 km/h aus 117

9.7 km/h aus SSW

15.0 C

16.1 C

15.8 C

16.1 C

50 W/m

0.00 mm

17:20

15.9 C

1009.6 hpa

95 %

3.2 km/h aus 117

14.5 km/h aus SSW

15.1 C

16.2 C

15.9 C

16.2 C

51 W/m

0.00 mm

17:25

15.9 C

1009.6 hpa

95 %

6.4 km/h aus 114

14.5 km/h aus SSW

15.1 C

16.2 C

15.9 C

16.2 C

37 W/m

0.00 mm

17:30

15.9 C

1009.7 hpa

95 %

8.0 km/h aus 115

16.1 km/h aus SSW

15.1 C

16.2 C

15.9 C

16.2 C

36 W/m

0.00 mm

17:35

15.9 C

1009.7 hpa

95 %

8.0 km/h aus 116

17.7 km/h aus S

15.1 C

16.2 C

15.9 C

16.2 C

49 W/m

0.00 mm

17:40

15.9 C

1009.7 hpa

95 %

6.4 km/h aus 117

14.5 km/h aus SSW

15.1 C

16.2 C

15.9 C

16.2 C

63 W/m

0.00 mm

17:45

16.0 C

1009.7 hpa

95 %

8.0 km/h aus 117

14.5 km/h aus SSW

15.2 C

16.3 C

16.0 C

16.3 C

66 W/m

0.00 mm

17:50

16.1 C

1009.7 hpa

95 %

8.0 km/h aus 114

16.1 km/h aus SSW

15.3 C

16.3 C

16.1 C

16.3 C

70 W/m

0.00 mm

17:55

16.1 C

1009.7 hpa

95 %

8.0 km/h aus 117

16.1 km/h aus SSW

15.3 C

16.4 C

16.1 C

16.4 C

86 W/m

0.00 mm

18:00

16.2 C

1009.7 hpa

95 %

8.0 km/h aus 117

17.7 km/h aus SSW

15.4 C

16.5 C

16.2 C

16.5 C

83 W/m

0.00 mm

18:05

16.2 C

1009.7 hpa

95 %

8.0 km/h aus 117

14.5 km/h aus SW

15.4 C

16.5 C

16.2 C

16.5 C

78 W/m

0.00 mm

18:10

16.3 C

1009.7 hpa

95 %

9.7 km/h aus 116

19.3 km/h aus SSW

15.5 C

16.6 C

16.2 C

16.6 C

79 W/m

0.00 mm

18:15

16.3 C

1009.7 hpa

95 %

8.0 km/h aus 114

17.7 km/h aus S

15.5 C

16.6 C

16.3 C

16.6 C

66 W/m

0.00 mm

18:20

16.3 C

1009.7 hpa

95 %

8.0 km/h aus 117

16.1 km/h aus SSW

15.5 C

16.7 C

16.3 C

16.7 C

60 W/m

0.00 mm

18:25

16.3 C

1009.7 hpa

95 %

4.8 km/h aus 116

11.3 km/h aus SSW

15.5 C

16.7 C

16.3 C

16.7 C

74 W/m

0.00 mm

18:30

16.4 C

1009.7 hpa

95 %

8.0 km/h aus 116

16.1 km/h aus SSW

15.6 C

16.8 C

16.4 C

16.8 C

85 W/m

0.00 mm

18:35

16.4 C

1009.7 hpa

95 %

8.0 km/h aus 116

16.1 km/h aus SSW

15.6 C

16.8 C

16.4 C

16.8 C

80 W/m

0.00 mm

18:40

16.5 C

1009.7 hpa

95 %

8.0 km/h aus 115

16.1 km/h aus SSW

15.7 C

16.8 C

16.5 C

16.8 C

87 W/m

0.00 mm

18:45

16.5 C

1009.9 hpa

95 %

3.2 km/h aus 117

9.7 km/h aus SW

15.7 C

16.8 C

16.5 C

16.8 C

79 W/m

0.00 mm

18:50

16.5 C

1009.9 hpa

95 %

8.0 km/h aus 117

17.7 km/h aus SSW

15.7 C

16.8 C

16.5 C

16.8 C

47 W/m

0.00 mm

18:55

16.4 C

1009.9 hpa

95 %

9.7 km/h aus 116

17.7 km/h aus S

15.6 C

16.7 C

16.4 C

16.8 C

36 W/m

0.00 mm

19:00

16.4 C

1010.1 hpa

95 %

4.8 km/h aus 116

17.7 km/h aus SSW

15.6 C

16.8 C

16.4 C

16.8 C

28 W/m

0.00 mm

19:05

16.4 C

1010.1 hpa

95 %

9.7 km/h aus 116

16.1 km/h aus SSW

15.6 C

16.7 C

16.3 C

16.7 C

31 W/m

0.00 mm

19:10

16.3 C

1010.1 hpa

95 %

8.0 km/h aus 117

20.9 km/h aus SSW

15.5 C

16.7 C

16.3 C

16.7 C

38 W/m

0.00 mm

19:15

16.3 C

1010.1 hpa

95 %

9.7 km/h aus 117

17.7 km/h aus S

15.5 C

16.6 C

16.3 C

16.7 C

41 W/m

0.00 mm

19:20

16.3 C

1010.1 hpa

95 %

8.0 km/h aus 116

17.7 km/h aus SSW

15.5 C

16.7 C

16.3 C

16.7 C

37 W/m

0.00 mm

19:25

16.3 C

1010.1 hpa

95 %

8.0 km/h aus 113

14.5 km/h aus SW

15.5 C

16.7 C

16.3 C

16.7 C

50 W/m

0.00 mm

19:30

16.3 C

1010.1 hpa

95 %

8.0 km/h aus 116

17.7 km/h aus SSW

15.5 C

16.7 C

16.3 C

16.7 C

49 W/m

0.00 mm

19:35

16.3 C

1010.1 hpa

95 %

6.4 km/h aus 117

19.3 km/h aus SW

15.5 C

16.7 C

16.3 C

16.7 C

38 W/m

0.00 mm

19:40

16.3 C

1010.1 hpa

95 %

9.7 km/h aus 117

19.3 km/h aus SSW

15.5 C

16.6 C

16.2 C

16.6 C

44 W/m

0.00 mm

19:45

16.2 C

1010.2 hpa

95 %

9.7 km/h aus 116

19.3 km/h aus SSW

15.4 C

16.4 C

16.1 C

16.5 C

49 W/m

0.00 mm

19:50

16.2 C

1010.2 hpa

95 %

8.0 km/h aus 114

17.7 km/h aus SW

15.4 C

16.5 C

16.2 C

16.5 C

44 W/m

0.00 mm

19:55

16.2 C

1010.2 hpa

95 %

9.7 km/h aus 116

17.7 km/h aus SSW

15.4 C

16.4 C

16.1 C

16.5 C

22 W/m

0.00 mm

20:00

16.2 C

1010.2 hpa

95 %

6.4 km/h aus 117

20.9 km/h aus SSW

15.4 C

16.4 C

16.2 C

16.4 C

18 W/m

0.00 mm

20:05

16.1 C

1010.2 hpa

95 %

9.7 km/h aus 117

16.1 km/h aus SSW

15.3 C

16.3 C

16.0 C

16.4 C

22 W/m

0.00 mm

20:10

16.1 C

1010.2 hpa

95 %

9.7 km/h aus 114

17.7 km/h aus S

15.3 C

16.3 C

16.0 C

16.4 C

32 W/m

0.00 mm

20:15

16.1 C

1010.2 hpa

95 %

9.7 km/h aus 115

17.7 km/h aus SSW

15.3 C

16.3 C

16.0 C

16.4 C

50 W/m

0.00 mm

20:20

16.1 C

1010.2 hpa

95 %

9.7 km/h aus 116

19.3 km/h aus SSW

15.3 C

16.3 C

16.0 C

16.4 C

55 W/m

0.00 mm

20:25

16.1 C

1010.2 hpa

95 %

9.7 km/h aus 117

20.9 km/h aus SSW

15.3 C

16.3 C

16.0 C

16.4 C

42 W/m

0.00 mm

20:30

16.1 C

1010.3 hpa

95 %

4.8 km/h aus 117

16.1 km/h aus SSW

15.3 C

16.4 C

16.1 C

16.4 C

22 W/m

0.00 mm

20:35

16.1 C

1010.3 hpa

95 %

11.3 km/h aus 115

17.7 km/h aus SW

15.3 C

16.1 C

15.8 C

16.4 C

21 W/m

0.00 mm

20:40

16.1 C

1010.3 hpa

95 %

11.3 km/h aus 116

19.3 km/h aus SSW

15.3 C

16.0 C

15.7 C

16.3 C

14 W/m

0.00 mm

20:45

16.0 C

1010.3 hpa

95 %

9.7 km/h aus 117

19.3 km/h aus SSW

15.2 C

16.2 C

15.9 C

16.3 C

9 W/m

0.00 mm

20:50

16.0 C

1010.3 hpa

95 %

9.7 km/h aus 117

19.3 km/h aus SSW

15.2 C

16.2 C

15.9 C

16.3 C

10 W/m

0.00 mm

20:55

16.0 C

1010.3 hpa

95 %

9.7 km/h aus 117

17.7 km/h aus SSW

15.2 C

16.2 C

15.9 C

16.3 C

11 W/m

0.00 mm

21:00

15.9 C

1010.5 hpa

95 %

9.7 km/h aus 114

16.1 km/h aus SSW

15.1 C

16.1 C

15.8 C

16.2 C

8 W/m

0.00 mm

21:05

15.9 C

1010.5 hpa

94 %

12.9 km/h aus 118

20.9 km/h aus SW

14.9 C

15.3 C

15.1 C

16.1 C

6 W/m

0.00 mm

21:10

15.9 C

1010.5 hpa

95 %

11.3 km/h aus 117

19.3 km/h aus SSW

15.1 C

15.8 C

15.5 C

16.2 C

5 W/m

0.00 mm

21:15

15.8 C

1010.7 hpa

95 %

12.9 km/h aus 117

20.9 km/h aus SW

15.0 C

15.3 C

15.1 C

16.1 C

3 W/m

0.00 mm

21:20

15.8 C

1010.7 hpa

95 %

12.9 km/h aus 116

19.3 km/h aus SW

15.0 C

15.2 C

15.0 C

16.0 C

0 W/m

0.00 mm

21:25

15.8 C

1010.7 hpa

95 %

11.3 km/h aus 114

19.3 km/h aus SSW

15.0 C

15.6 C

15.4 C

16.0 C

0 W/m

0.00 mm

21:30

15.8 C

1010.7 hpa

95 %

6.4 km/h aus 116

17.7 km/h aus S

15.0 C

16.0 C

15.8 C

16.0 C

0 W/m

0.00 mm

21:35

15.7 C

1010.7 hpa

95 %

9.7 km/h aus 117

19.3 km/h aus SW

14.9 C

15.8 C

15.6 C

15.9 C

0 W/m

0.00 mm

21:40

15.7 C

1010.7 hpa

95 %

9.7 km/h aus 117

16.1 km/h aus SSW

14.9 C

15.8 C

15.6 C

15.9 C

0 W/m

0.00 mm

21:45

15.7 C

1010.7 hpa

95 %

9.7 km/h aus 115

16.1 km/h aus SW

14.9 C

15.8 C

15.6 C

15.9 C

0 W/m

0.00 mm

21:50

15.7 C

1010.7 hpa

95 %

9.7 km/h aus 113

17.7 km/h aus S

14.9 C

15.7 C

15.4 C

15.9 C

0 W/m

0.00 mm

21:55

15.7 C

1010.7 hpa

95 %

6.4 km/h aus 115

14.5 km/h aus SW

14.9 C

15.9 C

15.7 C

15.9 C

0 W/m

0.00 mm

22:00

15.7 C

1010.9 hpa

95 %

9.7 km/h aus 115

17.7 km/h aus SSW

14.9 C

15.7 C

15.4 C

15.9 C

0 W/m

0.00 mm

22:05

15.7 C

1010.9 hpa

95 %

8.0 km/h aus 115

16.1 km/h aus SW

14.9 C

15.9 C

15.7 C

15.9 C

0 W/m

0.00 mm

22:10

15.7 C

1010.9 hpa

95 %

11.3 km/h aus 115

19.3 km/h aus SSW

14.9 C

15.4 C

15.2 C

15.9 C

0 W/m

0.00 mm

22:15

15.6 C

1011.1 hpa

94 %

9.7 km/h aus 114

24.1 km/h aus SSW

14.6 C

15.6 C

15.4 C

15.8 C

0 W/m

0.00 mm

22:20

15.6 C

1011.1 hpa

94 %

11.3 km/h aus 117

17.7 km/h aus SSW

14.6 C

15.4 C

15.2 C

15.8 C

0 W/m

0.00 mm

22:25

15.6 C

1011.1 hpa

94 %

11.3 km/h aus 117

20.9 km/h aus SSW

14.6 C

15.3 C

15.1 C

15.8 C

0 W/m

0.00 mm

22:30

15.6 C

1011.2 hpa

94 %

9.7 km/h aus 115

19.3 km/h aus S

14.6 C

15.6 C

15.3 C

15.8 C

0 W/m

0.00 mm

22:35

15.6 C

1011.2 hpa

94 %

11.3 km/h aus 115

19.3 km/h aus S

14.6 C

15.3 C

15.1 C

15.8 C

0 W/m

0.00 mm

22:40

15.6 C

1011.2 hpa

94 %

11.3 km/h aus 115

20.9 km/h aus SSW

14.6 C

15.3 C

15.1 C

15.8 C

0 W/m

0.00 mm

22:45

15.6 C

1011.3 hpa

94 %

12.9 km/h aus 117

22.5 km/h aus SSW

14.6 C

14.9 C

14.7 C

15.8 C

0 W/m

0.00 mm

22:50

15.6 C

1011.3 hpa

94 %

8.0 km/h aus 117

16.1 km/h aus SSW

14.6 C

15.8 C

15.6 C

15.8 C

0 W/m

0.00 mm

22:55

15.6 C

1011.3 hpa

95 %

6.4 km/h aus 115

11.3 km/h aus SSW

14.8 C

15.8 C

15.6 C

15.8 C

0 W/m

0.00 mm

23:00

15.6 C

1011.4 hpa

94 %

6.4 km/h aus 115

11.3 km/h aus SSW

14.6 C

15.8 C

15.6 C

15.8 C

0 W/m

0.00 mm

23:05

15.6 C

1011.4 hpa

94 %

8.0 km/h aus 117

16.1 km/h aus SSW

14.6 C

15.8 C

15.6 C

15.8 C

0 W/m

0.00 mm

23:10

15.6 C

1011.4 hpa

94 %

6.4 km/h aus 117

11.3 km/h aus SSW

14.6 C

15.8 C

15.6 C

15.8 C

0 W/m

0.00 mm

23:15

15.6 C

1011.5 hpa

94 %

4.8 km/h aus 118

9.7 km/h aus SSW

14.6 C

15.8 C

15.6 C

15.8 C

0 W/m

0.00 mm

23:20

15.6 C

1011.5 hpa

94 %

4.8 km/h aus 116

9.7 km/h aus SW

14.6 C

15.8 C

15.6 C

15.8 C

0 W/m

0.00 mm

23:25

15.6 C

1011.5 hpa

94 %

3.2 km/h aus 114

8.0 km/h aus SW

14.6 C

15.8 C

15.6 C

15.8 C

0 W/m

0.00 mm

23:30

15.6 C

1011.6 hpa

94 %

4.8 km/h aus 117

8.0 km/h aus SW

14.6 C

15.8 C

15.6 C

15.8 C

0 W/m

0.00 mm

23:35

15.6 C

1011.6 hpa

94 %

3.2 km/h aus 117

8.0 km/h aus SW

14.6 C

15.8 C

15.6 C

15.8 C

0 W/m

0.00 mm

23:40

15.6 C

1011.6 hpa

94 %

1.6 km/h aus 116

6.4 km/h aus SW

14.6 C

15.8 C

15.6 C

15.8 C

0 W/m

0.00 mm

23:45

15.6 C

1011.7 hpa

94 %

0.0 km/h aus 115

4.8 km/h aus SW

14.6 C

15.8 C

15.6 C

15.8 C

0 W/m

0.00 mm

23:50

15.6 C

1011.7 hpa

94 %

0.0 km/h aus 115

4.8 km/h aus SW

14.6 C

15.8 C

15.6 C

15.8 C

0 W/m

0.00 mm

23:55

15.6 C

1011.7 hpa

94 %

1.6 km/h aus 116

4.8 km/h aus SW

14.6 C

15.8 C

15.6 C

15.8 C

0 W/m

0.00 mm